Tracking 25693 objects as of 1-Jul-2022
HD Live streaming from Space Station
objects crossing your sky now

DELTA 1 DEB

Track DELTA 1 DEB now!
10-day predictions


NORAD ID: 37644
Int'l Code: 1978-026JF
Perigee: 791.0 km
Apogee: 874.2 km
Inclination: 98.8 °
Period: 101.4 minutes
Semi major axis: 7203 km
RCS: 0.0134 m2 (small)
Launch date: March 5, 1978
Source: United States (US)
Launch site: AIR FORCE WESTERN TEST RANGE (AFWTR)

Note: This is SATELLITE DEBRIS
aabbcc
Your satellite tracking list
Your tracking list is empty




NASA's NSSDC Master Catalog

Two Line Element Set (TLE):
1 37644U 78026JF  22177.48425837  .00000981  00000-0  47399-3 0  9990
2 37644  98.7508  67.2036 0057730 152.2357 208.1921 14.19964298995430
Source of the keplerian elements: AFSPC